Weather reports worldwide

Advertisment
Kleine Brogel, Belgium (6479): temperature & dewpoint: 11.08.2017 09:00:00 - 17.08.2017 09:00:00 (CEST)Kleine Brogel, Belgium (6479): wind speed & gusts: 11.08.2017 09:00:00 - 17.08.2017 09:00:00 (CEST)Kleine Brogel, Belgium (6479): wind direction: 11.08.2017 09:00:00 - 17.08.2017 09:00:00 (CEST)Kleine Brogel, Belgium (6479): reduced air pressure: 11.08.2017 09:00:00 - 17.08.2017 09:00:00 (CEST)Kleine Brogel, Belgium (6479): visibility: 11.08.2017 09:00:00 - 17.08.2017 09:00:00 (CEST)
Date & Time tt [°C] td [°C] ff [km/h] ff [kn] fx [km/h] fx [kn] dd ppp [hPa] vv [km]
17.08.2017 09:00:00 18,7 14,8 11 6 18 10 SSW 1015,7 20
17.08.2017 08:00:00 17,7 14,6 7 4 - - S 1016,0 20
17.08.2017 07:00:00 16,3 14,9 4 2 11 6 - 1016,1 15
17.08.2017 06:00:00 15,1 14,5 4 2 7 4 - 1016,5 10
17.08.2017 05:00:00 14,0 13,5 4 2 - - - 1017,2 9
17.08.2017 04:00:00 13,9 13,4 2 1 7 4 - 1017,8 6
17.08.2017 03:00:00 14,1 13,7 4 2 4 2 - 1018,0 1,4
17.08.2017 02:00:00 14,8 14,4 4 2 - - - 1018,6 3,6
17.08.2017 01:00:00 16,3 15,2 4 2 7 4 - 1018,8 8
17.08.2017 00:00:00 16,4 15,4 4 2 4 2 - 1019,2 8
16.08.2017 23:00:00 17,0 15,4 2 1 - - - 1019,7 7
16.08.2017 22:00:00 18,3 15,4 4 2 4 2 - 1020,3 20
16.08.2017 21:00:00 19,8 15,3 4 2 4 2 - 1019,7 20
16.08.2017 20:00:00 21,7 15,2 4 2 - - - 1019,8 20
16.08.2017 19:00:00 22,5 14,8 4 2 7 4 - 1019,7 20
16.08.2017 18:00:00 23,1 13,5 4 2 7 4 - 1020,2 20
16.08.2017 17:00:00 22,8 14,7 4 2 - - - 1020,1 20
16.08.2017 16:00:00 22,8 13,4 4 2 14 8 - 1020,6 20
16.08.2017 15:00:00 22,9 14,5 4 2 14 8 - 1021,0 15
16.08.2017 14:00:00 23,5 14,5 4 2 - - - 1021,2 15
16.08.2017 13:00:00 22,0 14,5 7 4 14 8 SSW 1021,6 15
16.08.2017 12:00:00 21,8 15,5 4 2 14 8 - 1021,8 15
16.08.2017 11:00:00 20,7 16,0 5 3 - - SW 1022,1 10
16.08.2017 10:00:00 19,8 16,0 7 4 11 6 SSW 1022,0 15
16.08.2017 09:00:00 17,9 16,0 4 2 7 4 - 1021,7 7
16.08.2017 08:00:00 13,4 13,4 2 1 - - - 1021,6 3,5
16.08.2017 07:00:00 12,3 12,3 4 2 7 4 - 1021,2 1,5
16.08.2017 06:00:00 12,4 12,3 4 2 4 2 - 1020,8 0,2
16.08.2017 05:00:00 12,8 12,7 0 0 - - N 1020,7 0,1
16.08.2017 04:00:00 13,0 12,9 4 2 4 2 - 1020,5 -
16.08.2017 03:00:00 14,5 14,2 4 2 7 4 - 1020,0 1,0
16.08.2017 02:00:00 15,1 14,7 4 2 - - - 1020,0 1,1
16.08.2017 01:00:00 16,7 15,9 7 4 11 6 SW 1020,0 6
16.08.2017 00:00:00 17,3 16,5 4 2 7 4 - 1019,3 10
15.08.2017 23:00:00 17,6 16,5 4 2 - - - 1018,3 12
15.08.2017 22:00:00 18,6 17,0 7 4 11 6 W 1018,1 17
15.08.2017 21:00:00 19,7 17,3 9 5 29 16 W 1016,8 10
15.08.2017 20:00:00 21,2 18,5 14 8 - - SW 1016,1 20
15.08.2017 19:00:00 22,0 18,6 14 8 25 14 WSW 1015,2 20
15.08.2017 18:00:00 21,0 18,3 14 8 25 14 WSW 1015,1 20
15.08.2017 17:00:00 20,7 19,3 14 8 - - SW 1014,7 20
15.08.2017 16:00:00 21,7 17,7 11 6 25 14 SSW 1014,6 18
15.08.2017 15:00:00 22,4 17,1 18 10 36 19 SW 1014,5 20
15.08.2017 14:00:00 22,7 17,9 4 2 - - - 1013,7 20
15.08.2017 13:00:00 23,3 17,8 7 4 14 8 SE 1013,6 20
15.08.2017 12:00:00 18,7 16,8 7 4 18 10 - 1013,7 20
15.08.2017 11:00:00 16,6 16,3 5 3 - - NW 1015,7 10
15.08.2017 10:00:00 17,1 14,9 4 2 7 4 - 1016,1 20
15.08.2017 09:00:00 - - - - - - - - -
15.08.2017 08:00:00 - - - - - - - - -
15.08.2017 07:00:00 - - - - - - - - -
15.08.2017 06:00:00 - - - - - - - - -
15.08.2017 05:00:00 - - - - - - - - -
15.08.2017 04:00:00 - - - - - - - - -
15.08.2017 03:00:00 - - - - - - - - -
15.08.2017 02:00:00 14,8 13,9 2 1 - - - 1016,0 10
15.08.2017 01:00:00 16,3 15,1 4 2 11 6 - 1016,2 8
15.08.2017 00:00:00 16,6 14,9 4 2 4 2 - 1016,3 10
14.08.2017 23:00:00 17,8 15,2 4 2 - - - 1016,5 19
14.08.2017 22:00:00 18,4 15,3 4 2 0 0 - 1016,6 20
14.08.2017 21:00:00 20,7 14,9 4 2 7 4 - 1016,3 20
14.08.2017 20:00:00 23,7 14,4 7 4 - - - 1016,2 20
14.08.2017 19:00:00 25,0 13,8 7 4 14 8 ENE 1016,5 20
14.08.2017 18:00:00 - - - - - - - - -
14.08.2017 17:00:00 25,2 12,8 11 6 - - E 1017,2 15
14.08.2017 16:00:00 25,2 12,9 4 2 18 10 - 1017,7 15
14.08.2017 15:00:00 24,2 13,2 4 2 18 10 - 1018,3 15
14.08.2017 14:00:00 23,1 13,0 7 4 - - SE 1019,1 15
14.08.2017 13:00:00 22,5 13,9 4 2 11 6 - 1019,6 15
14.08.2017 12:00:00 22,2 14,4 4 2 14 8 - 1019,8 15
14.08.2017 11:00:00 20,0 14,6 4 2 - - - 1020,2 15
14.08.2017 10:00:00 16,9 14,0 7 4 11 6 E 1020,5 15
14.08.2017 09:00:00 15,6 14,0 5 3 7 4 ENE 1020,7 10
14.08.2017 08:00:00 13,7 13,0 4 2 - - - 1020,7 15
14.08.2017 07:00:00 11,6 11,3 4 2 4 2 - 1020,7 8
14.08.2017 06:00:00 11,1 10,6 4 2 4 2 - 1020,7 12
14.08.2017 05:00:00 12,4 11,8 2 1 - - - 1020,8 3,0
14.08.2017 04:00:00 12,6 12,1 2 1 4 2 - 1021,2 9
14.08.2017 03:00:00 12,6 12,0 4 2 4 2 - 1021,5 9
14.08.2017 02:00:00 12,6 12,1 4 2 - - - 1021,8 14
14.08.2017 01:00:00 13,0 12,5 0 0 0 0 N 1022,1 15
14.08.2017 00:00:00 12,8 12,3 0 0 0 0 N 1022,2 1,5
13.08.2017 23:00:00 13,3 12,1 4 2 - - - 1022,2 20
13.08.2017 22:00:00 15,0 12,5 4 2 0 0 - 1022,0 20
13.08.2017 21:00:00 17,1 12,1 4 2 7 4 - 1021,5 20
13.08.2017 20:00:00 19,1 11,2 4 2 - - - 1021,2 20
13.08.2017 19:00:00 20,2 12,2 4 2 11 6 - 1021,1 20
13.08.2017 18:00:00 21,6 12,5 7 4 14 8 N 1021,2 20
13.08.2017 17:00:00 21,0 12,4 4 2 - - - 1021,2 20
13.08.2017 16:00:00 20,3 11,7 11 6 22 12 W 1021,2 20
13.08.2017 15:00:00 21,7 13,3 11 6 22 12 W 1021,0 20
13.08.2017 14:00:00 20,4 13,9 11 6 - - WSW 1021,2 10
13.08.2017 13:00:00 19,1 14,5 11 6 18 10 WSW 1021,2 12
13.08.2017 12:00:00 17,9 14,5 7 4 14 8 WSW 1021,3 12
13.08.2017 11:00:00 15,9 13,9 11 6 - - SW 1021,2 9
13.08.2017 10:00:00 15,2 14,0 7 4 14 8 SW 1020,6 4,3
13.08.2017 09:00:00 14,6 14,3 11 6 18 10 SW 1020,0 4,2
13.08.2017 08:00:00 14,1 13,8 11 6 - - SW 1019,5 4,4
13.08.2017 07:00:00 13,9 13,7 7 4 14 8 WSW 1019,0 5
13.08.2017 06:00:00 14,3 14,1 7 4 14 8 WSW 1018,7 5
13.08.2017 05:00:00 14,5 14,1 9 5 - - SW 1018,5 6
13.08.2017 04:00:00 15,1 14,6 11 6 14 8 WSW 1018,5 12
13.08.2017 03:00:00 16,0 15,8 7 4 11 6 WSW 1018,1 4,6
13.08.2017 02:00:00 16,5 16,3 9 5 - - WSW 1018,0 8
13.08.2017 01:00:00 16,5 16,3 7 4 14 8 WSW 1017,8 9
13.08.2017 00:00:00 16,7 16,5 7 4 14 8 SW 1017,6 9
12.08.2017 23:00:00 16,7 16,4 4 2 - - - 1017,3 10
12.08.2017 22:00:00 17,0 16,8 4 2 22 12 - 1017,2 20
12.08.2017 21:00:00 17,3 16,3 11 6 29 16 SW 1016,6 20
12.08.2017 20:00:00 18,1 16,3 18 10 - - SW 1016,2 20
12.08.2017 19:00:00 19,2 16,1 25 14 36 19 SW 1016,1 20
12.08.2017 18:00:00 19,3 16,1 14 8 32 18 WSW 1016,1 20
12.08.2017 17:00:00 18,7 16,3 22 12 - - SW 1016,1 20
12.08.2017 16:00:00 18,1 15,9 18 10 25 14 SW 1016,1 20
12.08.2017 15:00:00 17,8 16,1 18 10 25 14 SW 1016,1 20
12.08.2017 14:00:00 16,7 15,8 18 10 - - SW 1016,1 16
12.08.2017 13:00:00 16,4 16,0 18 10 29 16 SW 1015,7 4,5
12.08.2017 12:00:00 15,7 15,2 18 10 32 18 SW 1015,3 3,5
12.08.2017 11:00:00 15,3 14,9 18 10 - - SW 1015,2 3,6
12.08.2017 10:00:00 14,6 14,5 14 8 29 16 SW 1015,1 2,4
12.08.2017 09:00:00 14,2 14,1 18 10 29 16 SW 1015,0 2,2
12.08.2017 08:00:00 14,1 13,7 13 7 - - SSW 1014,7 3,2
12.08.2017 07:00:00 13,8 13,2 11 6 18 10 SSW 1015,0 11
12.08.2017 06:00:00 14,3 12,3 11 6 22 12 SW 1015,2 19
12.08.2017 05:00:00 14,6 11,3 14 8 - - SW 1015,2 20
12.08.2017 04:00:00 14,8 11,0 14 8 22 12 SW 1015,8 20
12.08.2017 03:00:00 14,6 10,3 14 8 25 14 WSW 1016,2 20
12.08.2017 02:00:00 15,4 9,6 18 10 - - WSW 1016,6 20
12.08.2017 01:00:00 15,6 9,1 7 4 14 8 SW 1016,7 20
12.08.2017 00:00:00 15,9 9,2 7 4 11 6 SW 1016,6 20
11.08.2017 23:00:00 15,6 10,5 7 4 - - WSW 1016,6 20
11.08.2017 22:00:00 16,9 9,1 7 4 18 10 W 1016,6 20
11.08.2017 21:00:00 17,9 11,3 4 2 22 12 - 1016,7 20
11.08.2017 20:00:00 18,7 10,8 11 6 - - WNW 1016,7 20
11.08.2017 19:00:00 19,8 10,2 7 4 25 14 NW 1016,8 20
11.08.2017 18:00:00 20,7 12,2 4 2 14 8 - 1017,1 20
11.08.2017 17:00:00 19,9 11,9 7 4 - - WNW 1017,3 20
11.08.2017 16:00:00 19,5 12,1 11 6 22 12 W 1017,3 20
11.08.2017 15:00:00 20,5 12,5 7 4 18 10 WNW 1017,8 20
11.08.2017 14:00:00 19,1 12,9 11 6 - - WNW 1018,3 20
11.08.2017 13:00:00 18,8 12,8 7 4 18 10 WNW 1018,7 20
11.08.2017 12:00:00 17,9 13,3 7 4 14 8 - 1018,7 20
11.08.2017 11:00:00 17,0 13,9 9 5 - - NNW 1018,8 10
11.08.2017 10:00:00 15,7 14,8 7 4 14 8 NNW 1018,8 9
11.08.2017 09:00:00 14,6 14,5 4 2 7 4 - 1018,8 4,0

tt = temperature
td = dewpoint
ff = wind speed
fx = gusts
dd = wind direction
ppp = reduced air pressure
vv = visibility

Next stations